Date String (YYYY-MM-DD hh:mm:ss) UTC,Instrument flags,Ambient pressure (hPa),Sample flow (lpm),Bypass flow (lpm),Sample temperature (°C),Ambient temperature (°C),ASC tube jacket temperature (°C),LED temperature (°C),Box temperature (°C),Sample RH (%),Span deviation,Mass concentration (μg/m³),Mass concentration (μg/m³),Mass concentration (μg/m³)
DateTimeUTC,F1_M11,P_M11,Q1_M11,Q2_M11,T1_M11,T2_M11,T3_M11,T4_M11,T5_M11,U1_M11,ZSPAN_M11,X0_M11,X2_M11,X1_M11
2022-09-19 08:00:00,,0825.5,5.02,0.00,30.3,29.1,00.0,39.1,32.2,18.4,0000.0,0010.33,0005.25,0004.53
2022-09-19 08:01:00,,0825.5,4.99,0.00,30.4,29.1,00.0,39.1,32.2,18.2,0000.0,0010.51,0005.26,0004.51
2022-09-19 08:02:00,,0825.5,4.99,0.00,30.4,29.1,00.0,39.1,32.2,18.1,0000.0,0010.99,0005.26,0004.48
2022-09-19 08:03:00,,0825.4,5.01,0.00,30.4,29.1,00.0,39.1,32.2,18.2,0000.0,0010.99,0005.21,0004.45
2022-09-19 08:04:00,,0825.5,4.98,0.00,30.4,29.1,00.0,39.1,32.2,18.1,0000.0,0011.07,0005.18,0004.44
2022-09-19 08:05:00,,0825.4,5.00,0.00,30.4,29.1,00.0,39.1,32.2,18.1,0000.0,0011.32,0005.18,0004.44
2022-09-19 08:06:00,,0825.4,5.00,0.00,30.4,29.1,00.0,39.1,32.3,18.1,0000.0,0011.43,0005.22,0004.46
2022-09-19 08:07:00,,0825.4,5.00,0.00,30.4,29.1,00.0,39.1,32.3,18.0,0000.0,0011.26,0005.18,0004.46
2022-09-19 08:08:00,,0825.4,5.00,0.00,30.5,29.2,00.0,39.2,32.3,17.9,0000.0,0011.32,0005.21,0004.47
2022-09-19 08:09:00,,0825.4,5.01,0.00,30.5,29.2,00.0,39.2,32.3,18.0,0000.0,0011.37,0005.24,0004.47
2022-09-19 08:10:00,,0825.4,4.99,0.00,30.5,29.2,00.0,39.2,32.3,17.9,0000.0,0011.44,0005.26,0004.47
2022-09-19 08:11:00,,0825.4,4.99,0.00,30.5,29.2,00.0,39.2,32.3,18.0,0000.0,0011.39,0005.25,0004.48
2022-09-19 08:12:00,,0825.4,5.00,0.00,30.5,29.2,00.0,39.2,32.3,18.2,0000.0,0011.01,0005.24,0004.49
2022-09-19 08:13:00,,0825.3,5.00,0.00,30.5,29.2,00.0,39.2,32.3,18.2,0000.0,0010.36,0005.21,0004.50
2022-09-19 08:14:00,,0825.3,5.00,0.00,30.5,29.2,00.0,39.2,32.3,18.1,0000.0,0010.13,0005.23,0004.52
2022-09-19 08:15:00,,0825.3,5.00,0.00,30.5,29.3,00.0,39.3,32.4,17.9,0000.0,0010.05,0005.25,0004.54
2022-09-19 08:16:00,,0825.3,5.00,0.00,30.6,29.3,00.0,39.3,32.4,18.0,0000.0,0009.66,0005.24,0004.55
2022-09-19 08:17:00,,0825.3,5.00,0.00,30.6,29.3,00.0,39.3,32.4,17.8,0000.0,0009.84,0005.22,0004.53
2022-09-19 08:18:00,,0825.3,5.00,0.00,30.6,29.2,00.0,39.3,32.4,17.9,0000.0,0010.24,0005.22,0004.53
2022-09-19 08:19:00,,0825.3,5.00,0.00,30.6,29.2,00.0,39.3,32.4,17.9,0000.0,0010.20,0005.21,0004.54
2022-09-19 08:20:00,,0825.4,5.00,0.00,30.6,29.2,00.0,39.3,32.4,17.9,0000.0,0010.62,0005.18,0004.54
2022-09-19 08:21:00,,0825.3,5.00,0.00,30.6,29.3,00.0,39.3,32.4,17.9,0000.0,0010.94,0005.15,0004.55
2022-09-19 08:22:00,,0825.4,4.99,0.00,30.6,29.3,00.0,39.3,32.4,17.9,0000.0,0010.91,0005.13,0004.55
2022-09-19 08:23:00,,0825.4,5.00,0.00,30.6,29.3,00.0,39.3,32.4,17.9,0000.0,0010.95,0005.12,0004.54
2022-09-19 08:24:00,,0825.4,5.00,0.00,30.6,29.3,00.0,39.3,32.4,17.9,0000.0,0010.72,0005.11,0004.53
2022-09-19 08:25:00,,0825.4,5.01,0.00,30.6,29.3,00.0,39.4,32.4,17.8,0000.0,0010.48,0005.11,0004.53
2022-09-19 08:26:00,,0825.3,4.99,0.00,30.6,29.3,00.0,39.4,32.4,17.5,0000.0,0010.72,0005.11,0004.51
2022-09-19 08:27:00,,0825.4,5.01,0.00,30.7,29.3,00.0,39.4,32.4,17.7,0000.0,0010.79,0005.09,0004.50
2022-09-19 08:28:00,,0825.4,5.00,0.00,30.7,29.3,00.0,39.4,32.4,18.3,0000.0,0010.71,0005.10,0004.50
2022-09-19 08:29:00,,0825.4,5.00,0.00,30.7,29.3,00.0,39.4,32.5,18.2,0000.0,0010.71,0005.11,0004.51
2022-09-19 08:30:00,,0825.4,4.99,0.00,30.7,29.3,00.0,39.4,32.5,18.1,0000.0,0011.51,0005.12,0004.52
2022-09-19 08:31:00,,0825.4,5.00,0.00,30.7,29.3,00.0,39.4,32.5,17.9,0000.0,0012.28,0005.13,0004.52
2022-09-19 08:32:00,,0825.4,5.00,0.00,30.7,29.2,00.0,39.4,32.5,17.9,0000.0,0012.19,0005.15,0004.53
2022-09-19 08:33:00,,0825.4,5.01,0.00,30.7,27.8,00.0,39.4,32.4,18.3,0000.0,0012.28,0005.18,0004.55
2022-09-19 08:34:00,,0825.4,5.00,0.00,30.6,26.8,00.0,39.3,32.3,18.4,0000.0,0012.63,0005.18,0004.57
2022-09-19 08:35:00,,0825.4,5.00,0.00,30.5,26.8,00.0,39.3,32.1,18.5,0000.0,0012.52,0005.24,0004.59
2022-09-19 08:36:00,,0825.4,4.99,0.00,30.4,27.1,00.0,39.2,31.9,18.7,0000.0,0012.35,0005.26,0004.61
2022-09-19 08:37:00,,0825.4,5.00,0.00,30.3,27.4,00.0,39.2,31.9,18.8,0000.0,0012.13,0005.25,0004.63
2022-09-19 08:38:00,,0825.4,5.00,0.00,30.3,27.7,00.0,39.1,31.9,18.8,0000.0,0012.17,0005.30,0004.64
2022-09-19 08:39:00,,0825.4,4.99,0.00,30.3,27.9,00.0,39.1,31.9,18.9,0000.0,0012.19,0005.33,0004.64
2022-09-19 08:40:00,,0825.4,4.99,0.00,30.2,28.1,00.0,39.1,31.9,18.9,0000.0,0011.85,0005.36,0004.64
2022-09-19 08:41:00,,0825.4,5.01,0.00,30.2,28.3,00.0,39.1,31.9,18.9,0000.0,0011.16,0005.37,0004.63
2022-09-19 08:42:00,,0825.4,5.01,0.00,30.2,28.4,00.0,39.1,31.9,19.0,0000.0,0009.95,0005.36,0004.63
2022-09-19 08:43:00,,0825.4,4.99,0.00,30.2,28.5,00.0,39.1,32.0,19.0,0000.0,0009.86,0005.40,0004.64
2022-09-19 08:44:00,,0825.4,5.01,0.00,30.2,28.6,00.0,39.1,32.0,18.9,0000.0,0009.97,0005.39,0004.62
2022-09-19 08:45:00,,0825.4,5.00,0.00,30.2,28.6,00.0,39.0,32.0,19.0,0000.0,0009.79,0005.38,0004.61
2022-09-19 08:46:00,,0825.4,5.00,0.00,30.2,28.7,00.0,39.0,32.0,19.0,0000.0,0009.66,0005.33,0004.59
2022-09-19 08:47:00,,0825.4,5.01,0.00,30.2,28.7,00.0,39.0,32.0,19.1,0000.0,0010.04,0005.32,0004.58
2022-09-19 08:48:00,,0825.3,5.00,0.00,30.2,28.8,00.0,39.0,32.0,19.1,0000.0,0010.21,0005.33,0004.59
2022-09-19 08:49:00,,0825.3,5.00,0.00,30.2,28.8,00.0,39.0,32.0,18.5,0000.0,0010.29,0005.29,0004.58
2022-09-19 08:50:00,,0825.3,4.98,0.00,30.3,28.9,00.0,39.0,32.1,17.6,0000.0,0011.55,0005.23,0004.55
2022-09-19 08:51:00,,0825.3,5.00,0.00,30.3,28.9,00.0,39.1,32.1,17.5,0000.0,0011.79,0005.14,0004.51
2022-09-19 08:52:00,,0825.4,5.01,0.00,30.3,28.9,00.0,39.0,32.1,17.0,0000.0,0011.90,0005.07,0004.47
2022-09-19 08:53:00,,0825.4,4.98,0.00,30.3,28.9,00.0,39.0,32.1,17.1,0000.0,0011.92,0005.01,0004.43
2022-09-19 08:54:00,,0825.4,5.02,0.00,30.3,28.9,00.0,39.1,32.1,17.0,0000.0,0012.22,0004.95,0004.38
2022-09-19 08:55:00,,0825.4,4.99,0.00,30.3,28.9,00.0,39.1,32.1,16.8,0000.0,0012.49,0004.90,0004.32
2022-09-19 08:56:00,,0825.4,5.01,0.00,30.3,29.0,00.0,39.1,32.1,16.7,0000.0,0012.48,0004.85,0004.26
2022-09-19 08:57:00,,0825.4,5.00,0.00,30.4,29.0,00.0,39.1,32.2,16.9,0000.0,0012.65,0004.81,0004.21
2022-09-19 08:58:00,,0825.5,5.00,0.00,30.4,29.0,00.0,39.1,32.2,17.0,0000.0,0012.41,0004.79,0004.16
2022-09-19 08:59:00,,0825.6,5.00,0.00,30.4,29.0,00.0,39.1,32.2,17.4,0000.0,0012.25,0004.76,0004.13
